Location: Ward Pound Ridge Reservation
(41.2500°N, 73.6000°W)
Time: 16:57:15
(UTC-05:00)

Vanguard 1 Rocket - Visible Passes

Search period start: 22 January 2018 00:00
Search period end: 01 February 2018 00:00
Orbit: 656 x 4221 km, 34.3° (Epoch: 21 January)

Date Brightness Start Highest point End Pass type
(mag) Time Alt. Az. Time Alt. Az. Time Alt. Az.
22 Jan 10.8 03:54:07 10° SSW 04:07:56 25° SSE 04:16:52 10° ESE visible
22 Jan 9.7 06:21:45 10° SW 06:35:19 44° SSE 06:42:36 10° E visible
23 Jan 11.2 02:43:12 10° S 02:55:13 18° SSE 03:04:03 10° ESE visible
23 Jan 10.1 05:07:55 10° SW 05:23:24 39° SSE 05:32:02 10° E visible
24 Jan 11.6 01:36:34 10° SSE 01:42:13 11° SE 01:47:13 10° SE visible
24 Jan 10.6 03:54:37 10° SSW 04:11:01 32° SSE 04:20:57 10° E visible
24 Jan 9.5 06:23:56 10° WSW 06:38:29 51° S 06:46:05 10° E visible
25 Jan 11.0 02:46:45 15° S 02:58:12 25° SSE 03:08:55 10° E visible
25 Jan 9.9 05:09:35 10° SW 05:26:31 46° SSE 05:35:36 10° E visible
26 Jan 11.4 01:41:28 17° SSE 01:45:07 17° SE 01:55:01 10° ESE visible
26 Jan 10.4 03:58:54 15° SSW 04:14:02 39° SSE 04:24:41 10° E visible
26 Jan 9.4 06:26:16 10° WSW 06:41:38 57° S 06:49:28 10° E visible
27 Jan 10.8 02:53:05 25° S 03:01:06 32° SSE 03:13:05 10° E visible
27 Jan 9.8 05:11:30 10° SW 05:29:36 53° SSE 05:39:02 10° E visible
28 Jan 11.1 01:46:56 24° SSE 01:47:54 24° SE 02:00:14 10° E visible
28 Jan 10.2 04:04:19 23° SW 04:17:00 47° SSE 04:28:15 10° E visible
28 Jan 9.4 06:28:44 10° WSW 06:44:45 60° S 06:52:49 10° ESE visible
29 Jan 11.5 00:40:32 14° ESE 00:40:32 14° ESE 00:44:41 10° ESE visible
29 Jan 10.6 02:57:53 33° S 03:03:57 39° SSE 03:16:52 10° E visible
29 Jan 9.7 05:15:15 13° WSW 05:32:38 59° S 05:42:26 10° E visible
30 Jan 10.9 01:51:17 30° SE 01:51:17 30° SE 02:04:33 10° E visible
30 Jan 10.0 04:08:37 29° SW 04:19:57 53° SSE 04:31:40 10° E visible
30 Jan 9.4 06:31:18 10° WSW 06:47:50 62° S 06:56:08 10° ESE visible
31 Jan 11.4 00:44:32 18° ESE 00:44:32 18° ESE 00:50:32 10° E visible
31 Jan 10.4 03:01:51 41° S 03:06:44 46° SSE 03:20:25 10° E visible
31 Jan 9.7 05:19:10 16° WSW 05:35:40 63° S 05:45:45 10° E visible
